When you browse on this site, cookies collect data to enhance your experience and personalize the content and advertising you see.
Visit our Privacy Policy to learn more. By continuing to use the site, you agree to this use of cookies and data.
  • In Lithuania
  • List of Countries
  • For 7 days
  • Water Temperature
  • Satellite Maps
  • Weather Map
  • Weather Widgets
  • user-avatar
    Login

    Hourly Weather Svetica

    Today, 27 March, Wednesday

    Time Temperature Precipitation Wind Pressure Humidity
    00:00 -1°C° 0 mm 1 mps 739 mmHg 93%
    01:00 -2°C° 0 mm 1 mps 739 mmHg 94%
    02:00 -2°C° 0 mm 1 mps 740 mmHg 95%
    03:00 -2°C° 0 mm 1 mps 740 mmHg 95%
    04:00 -2°C° 0.1 mm 1 mps 740 mmHg 96%
    05:00 -2°C° 0.1 mm 1 mps 740 mmHg 96%
    06:00 -2°C° 0.1 mm 1 mps 741 mmHg 97%
    07:00 -1°C° 0.1 mm 1 mps 741 mmHg 95%
    08:00 0°C° 0.1 mm 1 mps 742 mmHg 94%
    09:00 +1°C° 0.1 mm 1 mps 742 mmHg 92%
    10:00 +1°C° 0.1 mm 1 mps 742 mmHg 91%
    11:00 +1°C° 0.1 mm 2 mps 743 mmHg 91%
    12:00 +2°C° 0.1 mm 2 mps 743 mmHg 90%
    13:00 +2°C° 0.1 mm 2 mps 744 mmHg 88%
    14:00 +1°C° 0.1 mm 3 mps 744 mmHg 86%
    15:00 +1°C° 0.1 mm 3 mps 745 mmHg 84%
    16:00 +1°C° 0 mm 2 mps 745 mmHg 85%
    17:00 -1°C° 0 mm 2 mps 745 mmHg 87%
    18:00 0°C° 0 mm 1 mps 746 mmHg 88%
    19:00 -1°C° 0 mm 1 mps 746 mmHg 89%
    20:00 -2°C° 0 mm 1 mps 746 mmHg 90%
    21:00 -3°C° 0 mm 1 mps 747 mmHg 91%
    22:00 -3°C° 0 mm 1 mps 747 mmHg 92%
    23:00 -3°C° 0 mm 1 mps 747 mmHg 92%

    Tomorrow, 28 March, Thursday

    Time Temperature Precipitation Wind Pressure Humidity
    00:00 -4°C° 0 mm 1 mps 748 mmHg 93%
    01:00 -4°C° 0 mm 1 mps 748 mmHg 94%
    02:00 -4°C° 0 mm 1 mps 748 mmHg 94%
    03:00 -4°C° 0 mm 1 mps 748 mmHg 95%
    04:00 -4°C° 0 mm 1 mps 749 mmHg 96%
    05:00 -4°C° 0 mm 1 mps 749 mmHg 96%
    06:00 -4°C° 0 mm 1 mps 749 mmHg 97%
    07:00 -3°C° 0 mm 1 mps 750 mmHg 95%
    08:00 -1°C° 0 mm 1 mps 750 mmHg 92%
    09:00 -2°C° 0 mm 2 mps 750 mmHg 90%
    10:00 -1°C° 0 mm 2 mps 750 mmHg 88%
    11:00 -1°C° 0 mm 2 mps 751 mmHg 85%
    12:00 +2°C° 0 mm 1 mps 751 mmHg 83%
    13:00 +1°C° 0.1 mm 2 mps 751 mmHg 81%
    14:00 +1°C° 0.1 mm 2 mps 750 mmHg 79%
    15:00 +1°C° 0.1 mm 2 mps 750 mmHg 76%
    16:00 +1°C° 0 mm 2 mps 750 mmHg 78%
    17:00 +1°C° 0 mm 1 mps 750 mmHg 80%
    18:00 0°C° 0 mm 1 mps 750 mmHg 82%
    19:00 -1°C° 0 mm 1 mps 750 mmHg 85%
    20:00 -2°C° 0 mm 1 mps 750 mmHg 88%
    21:00 -3°C° 0 mm 1 mps 750 mmHg 92%
    22:00 -3°C° 0 mm 1 mps 750 mmHg 92%
    23:00 -4°C° 0 mm 1 mps 750 mmHg 93%

    Day after tomorrow, 29 March, Friday

    Time Temperature Precipitation Wind Pressure Humidity
    00:00 -4°C° 0 mm 1 mps 750 mmHg 94%
    01:00 -4°C° 0 mm 1 mps 750 mmHg 94%
    02:00 -4°C° 0 mm 1 mps 750 mmHg 95%
    03:00 -4°C° 0 mm 1 mps 749 mmHg 95%
    04:00 -6°C° 0 mm 2 mps 749 mmHg 95%
    05:00 -6°C° 0 mm 2 mps 749 mmHg 96%
    06:00 -7°C° 0 mm 2 mps 749 mmHg 96%
    07:00 -5°C° 0 mm 2 mps 749 mmHg 95%
    08:00 -4°C° 0 mm 2 mps 748 mmHg 93%
    09:00 -2°C° 0 mm 3 mps 748 mmHg 91%
    10:00 -1°C° 0 mm 3 mps 748 mmHg 88%
    11:00 -1°C° 0 mm 3 mps 747 mmHg 86%
    12:00 -1°C° 0 mm 4 mps 747 mmHg 84%
    13:00 0°C° 0 mm 4 mps 746 mmHg 84%
    14:00 0°C° 0 mm 4 mps 746 mmHg 84%
    15:00 0°C° 0 mm 4 mps 745 mmHg 84%
    16:00 0°C° 0 mm 4 mps 745 mmHg 86%
    17:00 0°C° 0 mm 4 mps 744 mmHg 87%
    18:00 0°C° 0 mm 5 mps 744 mmHg 89%
    19:00 0°C° 0.2 mm 5 mps 743 mmHg 90%
    20:00 0°C° 0.2 mm 5 mps 743 mmHg 90%
    21:00 0°C° 0.2 mm 5 mps 742 mmHg 91%
    22:00 0°C° 0.1 mm 5 mps 742 mmHg 92%
    23:00 0°C° 0.1 mm 4 mps 741 mmHg 92%

    30 March, Saturday

    Time Temperature Precipitation Wind Pressure Humidity
    00:00 0°C° 0.1 mm 4 mps 741 mmHg 93%
    01:00 0°C° 0.1 mm 4 mps 740 mmHg 93%
    02:00 0°C° 0.1 mm 4 mps 739 mmHg 93%
    03:00 0°C° 0.1 mm 4 mps 739 mmHg 93%
    04:00 0°C° 0 mm 4 mps 738 mmHg 93%
    05:00 0°C° 0 mm 4 mps 738 mmHg 93%
    06:00 0°C° 0 mm 4 mps 738 mmHg 94%
    07:00 0°C° 0.1 mm 4 mps 737 mmHg 93%
    08:00 +1°C° 0.1 mm 4 mps 737 mmHg 92%
    09:00 +1°C° 0.1 mm 4 mps 736 mmHg 92%
    10:00 +1°C° 0.3 mm 4 mps 736 mmHg 91%
    11:00 +1°C° 0.3 mm 4 mps 736 mmHg 91%
    12:00 +3°C° 0.3 mm 4 mps 735 mmHg 90%
    13:00 +3°C° 0.3 mm 4 mps 735 mmHg 90%
    14:00 +3°C° 0.3 mm 4 mps 735 mmHg 89%
    15:00 +2°C° 0.3 mm 5 mps 735 mmHg 89%
    16:00 +1°C° 0.1 mm 4 mps 735 mmHg 87%
    17:00 +1°C° 0.1 mm 4 mps 735 mmHg 85%
    18:00 +2°C° 0.1 mm 3 mps 735 mmHg 83%
    19:00 +1°C° 0.1 mm 3 mps 736 mmHg 83%
    20:00 0°C° 0.1 mm 4 mps 736 mmHg 83%
    21:00 -1°C° 0.1 mm 4 mps 736 mmHg 83%
    22:00 -1°C° 0 mm 4 mps 736 mmHg 82%
    23:00 -2°C° 0 mm 4 mps 737 mmHg 82%

    31 March, Sunday

    Time Temperature Precipitation Wind Pressure Humidity
    00:00 -2°C° 0 mm 4 mps 737 mmHg 81%
    01:00 -3°C° 0 mm 4 mps 738 mmHg 81%
    02:00 -3°C° 0 mm 4 mps 738 mmHg 80%
    03:00 -4°C° 0 mm 4 mps 739 mmHg 80%
    04:00 -4°C° 0 mm 4 mps 739 mmHg 80%
    05:00 -4°C° 0 mm 4 mps 740 mmHg 80%
    06:00 -4°C° 0 mm 4 mps 741 mmHg 80%
    07:00 -4°C° 0 mm 4 mps 741 mmHg 77%
    08:00 -4°C° 0 mm 5 mps 742 mmHg 74%
    09:00 -2°C° 0 mm 5 mps 742 mmHg 71%
    10:00 -1°C° 0 mm 5 mps 742 mmHg 68%
    11:00 0°C° 0 mm 5 mps 743 mmHg 64%
    12:00 +1°C° 0 mm 5 mps 743 mmHg 61%
    13:00 +1°C° 0 mm 5 mps 744 mmHg 60%
    14:00 +1°C° 0 mm 4 mps 744 mmHg 59%
    15:00 +1°C° 0 mm 4 mps 744 mmHg 59%
    16:00 +2°C° 0 mm 3 mps 744 mmHg 64%
    17:00 +2°C° 0 mm 2 mps 745 mmHg 70%
    18:00 +2°C° 0 mm 1 mps 745 mmHg 76%
    19:00 +1°C° 0 mm 1 mps 745 mmHg 78%
    20:00 +1°C° 0 mm 1 mps 745 mmHg 81%
    21:00 +1°C° 0 mm 1 mps 745 mmHg 84%
    22:00 0°C° 0 mm 1 mps 745 mmHg 86%
    23:00 0°C° 0 mm 1 mps 745 mmHg 87%

    1 April, Monday

    Time Temperature Precipitation Wind Pressure Humidity
    00:00 0°C° 0 mm 1 mps 745 mmHg 89%
    01:00 0°C° 0.1 mm 1 mps 745 mmHg 89%
    02:00 0°C° 0.1 mm 1 mps 745 mmHg 90%
    03:00 0°C° 0.1 mm 1 mps 744 mmHg 90%
    04:00 -2°C° 0.9 mm 2 mps 744 mmHg 91%
    05:00 -2°C° 0.9 mm 3 mps 743 mmHg 93%
    06:00 -3°C° 0.9 mm 4 mps 743 mmHg 94%
    07:00 -3°C° 1.1 mm 4 mps 742 mmHg 94%
    08:00 -2°C° 1.1 mm 4 mps 741 mmHg 93%
    09:00 -2°C° 1.1 mm 4 mps 741 mmHg 93%
    10:00 -2°C° 1 mm 4 mps 740 mmHg 94%
    11:00 0°C° 1 mm 3 mps 740 mmHg 96%
    12:00 +1°C° 1 mm 2 mps 739 mmHg 98%
    13:00 +2°C° 0.9 mm 2 mps 739 mmHg 98%
    14:00 +2°C° 0.9 mm 3 mps 738 mmHg 98%
    15:00 +3°C° 0.9 mm 3 mps 738 mmHg 98%
    16:00 +3°C° 0.2 mm 3 mps 738 mmHg 93%
    17:00 +2°C° 0.2 mm 3 mps 738 mmHg 89%
    18:00 +1°C° 0.2 mm 4 mps 738 mmHg 84%
    19:00 0°C° 0 mm 4 mps 738 mmHg 84%
    20:00 -1°C° 0 mm 4 mps 739 mmHg 85%
    21:00 -2°C° 0 mm 4 mps 739 mmHg 86%
    22:00 -2°C° 0.1 mm 4 mps 740 mmHg 87%
    23:00 -2°C° 0.1 mm 4 mps 740 mmHg 88%
    Show more